Location: Altavilla Irpina
(41.0000°N, 14.7833°E)
Time: 07:06:48
(UTC+00:00)

Cosmos 2322 Rocket - Pass Details

Date: 19 May 2025
Orbit: 832 x 849 km, 71.0° (Epoch: 22 June)

Event Time Altitude Azimuth Distance (km) Brightness Sun altitude
Rises 21:08:42 0° 350° (N) 3,412 6.6 -24.0°
Reaches altitude 10° 21:12:36 10° 17° (NNE) 2,469 5.2 -24.4°
Maximum altitude 21:15:20 14° 46° (NE) 2,218 4.6 -24.6°
Drops below altitude 10° 21:18:03 10° 75° (ENE) 2,457 4.5 -24.8°
Enters shadow 21:18:18 - 77° (ENE) 2,499 4.5 -24.8°
